Other Public Products
Issued by NWS Grand Forks, ND

Home | Current Version | Previous Version | Graphics & Text | Print | Product List | Glossary On
Versions: 1 2 3 4 5 6 7 8 9 10 11 12 13 14 15 16 17 18 19 20 21 22 23 24 25 26 27 28 29 30 31 32 33 34 35 36 37 38 39 40 41 42 43 44 45 46 47 48 49 50
000
FPUS83 KFGF 171710
OPUFGF
PRAIRIE TO PINES WEATHER ROUNDUP
NATIONAL WEATHER SERVICE EASTERN NORTH DAKOTA/GRAND FORKS ND
1200 PM CDT THU APR 17 2014

 **SATELLITE DATA USED TO AUGMENT SKY COVER AT AUTOMATED STATIONS**
 *****  WEATHER ACROSS EASTERN NORTH DAKOTA  *****

CITY           SKY/WX    TMP DP  RH WIND       PRES   REMARKS
GRAND FORKS    SUNNY     37  12  35 N8        30.36F
GRAND FORKS AF SUNNY     37  13  38 N8        30.36F
GRAND CITY NWS   N/A     37 N/A N/A VRB9        N/A
BUXTON         NOT AVBL
DEVILS LAKE    SUNNY     34   7  32 S8        30.32F
FARGO          SUNNY     39  16  39 N10       30.33F
WAHPETON ARPT  SUNNY     37  10  32 N8        30.33S
$$

 *****  WEATHER ACROSS CENTRAL AND WESTERN NORTH DAKOTA  *****

CITY           SKY/WX    TMP DP  RH WIND       PRES   REMARKS
JAMESTOWN      SUNNY     37   9  31 SE5       30.30F
BISMARCK       MOSUNNY   38  14  37 SE8       30.28F
MINOT          CLOUDY    33  15  47 E9        30.27F
MINOT AFB      CLOUDY    32  17  55 SE10      30.27F WCI  23
GARRISON         N/A     34  14  43 SE13      30.25F WCI  25
WILLISTON      PTSUNNY   37  25  61 SE21      30.16F
DICKINSON      CLOUDY    36  24  62 SE18G28   30.14F
HETTINGER      CLOUDY    31  27  85 SE15      30.17S WCI  20
$$

 *****  OTHER OBSERVATIONS NORTHEAST NORTH DAKOTA  *****

CITY           SKY/WX    TMP DP  RH WIND       PRES   REMARKS
WALHALLA         N/A     32  12  43 N5        30.37F
LANGDON        FAIR      37   5  25 SE8       30.32F
CAVALIER       FAIR      34  12  40 N3        30.37F
GRAFTON        FAIR      32  16  51 N6        30.37F
CANDO          FAIR      36   7  30 SE8       30.33F
FORT TOTTEN      N/A     38  11  33 SW3       29.95S
ROLLA          FAIR      32  14  47 S8        30.31F WCI  25
RUGBY          FAIR      32  14  47 E7        30.31F
 ***** THE ABOVE OBSERVATIONS ARE NON NWS ARE NOT QUALITY
        CONTROLLED AND MAY MIS-REPORT RAIN FOR SNOW...
$$

 *****  OTHER OBSERVATIONS SOUTHEAST NORTH DAKOTA *****

CITY           SKY/WX    TMP DP  RH WIND       PRES   REMARKS
COOPERSTOWN    FAIR      34   9  35 SE5       30.32F
VALLEY CITY    NOT AVBL
OAKES          FAIR      37  10  32 CALM      30.32S
GWINNER        SUNNY     39  12  33 N7        30.33S
SHEYENNE NWR     N/A     43  10  25 NE6       29.95S
BUFFALO        NOT AVBL
WYNDMERE       NOT AVBL
 ***** THE ABOVE OBSERVATIONS ARE NON NWS ARE NOT QUALITY
       CONTROLLED AND MAY MIS-REPORT RAIN FOR SNOW...
$$

  *****  WEATHER ACROSS NORTHERN MINNESOTA  *****

CITY           SKY/WX    TMP DP  RH WIND       PRES   REMARKS
FLAG ISLAND    SUNNY     30  12  47 N7        30.34S WCI  23
WARROAD        SUNNY     30   7  37 NE5       30.35S
ROSEAU         SUNNY     37   3  23 CALM      30.34S
HALLOCK        CLOUDY    36  12  38 W3        30.36F
THF RVR FALLS  SUNNY     36   7  30 NE3       30.33F
HALSTAD          N/A     39  14  36 N9          N/A
FOSSTON        SUNNY     37   9  30 NW7       30.31F
BAUDETTE       SUNNY     34  15  46 NW13      30.31S WCI  25
WASKISH        SUNNY     39  14  35 NE6G18    30.29S
CROOKSTON      SUNNY     36  16  44 N8        30.35F
$$
  *****  WEATHER ACROSS CENTRAL AND WEST MINNESOTA  *****

CITY           SKY/WX    TMP DP  RH WIND       PRES   REMARKS
BEMIDJI        SUNNY     37   6  27 N12G20    30.27F
PARK RAPIDS    SUNNY     37   7  28 N12G18    30.26F
WADENA         SUNNY     34  14  44 N14       30.26F WCI  24
DETROIT LAKES  SUNNY     37  10  32 N10G16    30.29F
MOORHEAD       NOT AVBL
FERGUS FALLS   SUNNY     37   9  30 N9G17     30.28F
ELBOW LAKE     FAIR      35  16  46 N9        30.30S
MORRIS MN      SUNNY     36  21  55 N9        30.30S
STAPLES        SUNNY     36  19  51 NW6       30.26F
WHEATON        SUNNY     39  19  45 N8        30.35S
$$
  *****  WEATHER ELSEWHERE ACROSS MINNESOTA  *****

CITY           SKY/WX    TMP DP  RH WIND       PRES   REMARKS
DULUTH         PTSUNNY   33  24  69 N9        30.20R
INTRNTL FALLS  CLOUDY    33  19  56 NE10      30.29S WCI  25
ELY            FLURRIES  30  23  74 N7        30.21S WCI  23
CLOQUET        CLOUDY    30  25  80 NW10G16   30.22R WCI  21
BRAINERD       SUNNY     40  21  46 N10       30.26R
HIBBING        CLOUDY    33  24  69 NW14      30.23R WCI  23
ALEXANDRIA     SUNNY     33  20  58 N9        30.28F
SAINT CLOUD    SUNNY     35  23  61 N7        30.27S
MINNEAPOLIS    CLOUDY    32  28  85 NW10      30.27S WCI  24
$$

  *****  WEATHER ACROSS SOUTH DAKOTA  *****

CITY           SKY/WX    TMP DP  RH WIND       PRES   REMARKS
SIOUX FALLS    MOSUNNY   34  26  72 NE8       30.33S
BROOKINGS      NOT AVBL
WATERTOWN      MOSUNNY   33  16  49 NE9       30.30F
HURON          SUNNY     37  22  54 NE6       30.34S
SISSETON         N/A     35  21  56 N7        30.33S
ABERDEEN       MOSUNNY   37  19  48 NE6       30.33F
MITCHELL       SUNNY     42  15  33 NE9       30.34S
PIERRE         CLOUDY    38  20  48 SE13      30.27F
MOBRIDGE       MOSUNNY   38  18  44 S10       30.26F
RAPID CITY     PTSUNNY   43  31  62 S22G28    30.11F
$$

  *****  SOME WEATHER IN NEARBY STATES *****

CITY           SKY/WX    TMP DP  RH WIND       PRES   REMARKS
GLASGOW MT     CLOUDY    39  26  59 SE21      30.01F
GREAT FALLS MT CLOUDY    50  30  46 SW17      29.86S
CHEYENNE WY    SUNNY     49  14  24 NW17G24   30.07F
SCOTTSBLUFF NE CLOUDY    41  34  76 SE10      30.14F
OMAHA NE       MOSUNNY   41  25  53 VRB6      30.34F
DES MOINES IA  PTSUNNY   42  28  57 NW13      30.31S
DAVENPORT IA   PTSUNNY   47  34  60 W13       30.24R
CHICAGO IL     MOSUNNY   56  36  47 SW15G24   30.18R
EAU CLAIRE WI  CLOUDY    36  32  85 NW12      30.20R
LA CROSSE WI   CLOUDY    43  33  68 W10       30.20R
$$

  *****  SOME NATIONAL WEATHER *****

CITY           SKY/WX    TMP DP  RH WIND       PRES   REMARKS
LA GUARDIA NY  PTSUNNY   44  25  47 NE14      30.72F
RALEIGH NC     PTSUNNY   55  28  35 NE7       30.53F
ATLANTA GA     PTSUNNY   58  34  40 E12       30.42S
NEW ORLEANS LA CLOUDY    64  56  75 E8        30.21S
OKLAHOMA CITY  CLOUDY    57  44  62 N5        30.21S
ALBUQUERQUE NM PTSUNNY   56  28  34 S3        30.17R
SALT LAKE CITY MOSUNNY   59  23  25 S10       30.05F
LOS ANGELES CA PTSUNNY   63  52  67 VRB6      29.91R
BOISE ID       SUNNY     59  26  28 SE15G22   29.91F
SEATTLE WA     LGT RAIN  51  49  92 S10       29.84F
$$

*** WEATHER ACROSS MANITOBA...SASKATCHEWAN AND ONTARIO ***
                ***ONTARIO***

CITY           SKY/WX    TMP DP  RH WIND       PRES   REMARKS
GERALDTON      LGT SNOW  28  25  86 E6        30.35  WCI  22
THUNDER BAY    SNOW      30  28  93 NE18G24   30.24F VSB 1/2 WCI  18
SIOUX LOOKOUT  CLOUDY    34   5  29 N7        30.33F
TORONTO        PTSUNNY   43  25  49 E15G22    30.49F
BIG TROUT LK   SUNNY     25   5  42 SW9       30.41  WCI  15
PICKLE LAKE    PTSUNNY   30   1  29 SE3       30.38F
DRYDEN         MOSUNNY   32   5  32 NE13G18   30.31F WCI  22
KENORA         NOT AVBL
$$
                *** MANITOBA***

CITY           SKY/WX    TMP DP  RH WIND       PRES   REMARKS
BRANDON        MOSUNNY   27  14  59 E9        30.36F WCI  17
DAUPHIN          N/A     28  18  64 NE12      30.38  WCI  18
ISLAND LAKE    MOSUNNY   28   9  43 CALM      30.41F
PILOT MOUND      N/A     34   5  29 SE5         N/A
THE PAS        SUNNY     28   9  43 SE7       30.37F WCI  21
THOMPSON       SUNNY     30   9  40 W13       30.35F WCI  20
WINNIPEG       SUNNY     34  16  47 N8        30.40F
LYNN LAKE      SUNNY     30   1  29 W9        30.29F WCI  22
CHURCHILL      PTSUNNY   25  10  54 W17       30.13S WCI  11
GILLAM         MOSUNNY   28   7  40 W14       30.32S WCI  17
$$
                ***SASKATCHEWAN***

CITY           SKY/WX    TMP DP  RH WIND       PRES   REMARKS
ESTEVAN        CLOUDY    34  18  51 SE17G23   30.21F WCI  23
KINDERSLEY     CLOUDY    30  27  86 SE24      29.91F WCI  16
LLOYDMINSTER   NOT AVBL
PRINCE ALBERT  PTSUNNY   30  18  59 SE14      30.21F WCI  20
REGINA         CLOUDY    34  18  51 SE21G29   30.16F WCI  22



USA.gov is the U.S. government's official web portal to all federal, state and local government web resources and services.